Flag for France Weather past 2 weeks in Strasbourg, France

Now
72 °F

Clear.


Feels Like: 71 °F
Forecast: 65 / 92 °F
Wind: 3 mph from North

Location: Strasbourg Airport

Current Time: Aug 29, 2015 at 11:52:24 PM

Latest Report: Aug 29, 2015 at 11:00 PM


Visibility: 10 mi

Pressure: 30.07 "Hg

Humidity: 83%

Dew point: 66 °F

Location of StrasbourgLocation

Historic Weather in Strasbourg — Graph

°F

Strasbourg temperature yesterday

Maximum temperature yesterday: 81 °F (at 5:00 PM)
Minimum temperature yesterday: 68 °F (at 4:00 AM)
Average temperature yesterday: 72 °F

Past Weeks' High & Low Weather Summary

 TemperatureHumidityPressure
High90 °F (Aug 27, 4:30 PM)94% (Aug 15, 4:00 AM)30.27 "Hg (Aug 15, 4:00 AM)
Low48 °F (Aug 20, 5:30 AM)28% (Aug 21, 4:30 PM)29.68 "Hg (Aug 24, 7:00 AM)
Average67 °F68%30.00 "Hg
* Reported Aug 14 10:00 PM — Aug 29 10:30 PM, Strasbourg, Weather by CustomWeather, © 2015

Note: Actual official high and low records may vary slightly from our data, if they occured in-between our weather recording intervals... More about our weather records

Advertising

Strasbourg weather history for previous 24 hours

 ConditionsComfort  
Time TempWeatherWind HumidityBarometerVisibility
10:30 PM
Sat, Aug 29
73 °FClear.3 mph78%30.07 "Hg10 mi
10:00 PM75 °FClear.2 mph74%30.07 "Hg10 mi
9:30 PM75 °FClear.1 mph74%30.07 "Hg10 mi
9:00 PM75 °FSunny.2 mph74%30.07 "Hg10 mi
8:30 PM79 °FSunny.3 mph65%30.07 "Hg10 mi
8:00 PM82 °FSunny.3 mph58%30.07 "Hg10 mi
7:30 PM86 °FSunny.6 mph49%30.07 "Hg10 mi
7:00 PM86 °FSunny.6 mph46%30.07 "Hg10 mi
6:30 PM88 °FSunny.8 mph46%30.07 "Hg10 mi
6:00 PM88 °FPassing clouds.5 mph49%30.07 "HgN/A
5:30 PM90 °FPassing clouds.5 mph43%30.07 "HgN/A
5:00 PM88 °FPassing clouds.5 mph46%30.07 "HgN/A
4:30 PM88 °FSunny.3 mph46%30.09 "Hg10 mi
4:00 PM88 °FSunny.3 mph46%30.09 "Hg10 mi
3:30 PM88 °FSunny.3 mph46%30.12 "Hg10 mi
3:00 PM88 °FSunny.3 mph46%30.12 "Hg10 mi
2:30 PM84 °FSunny.3 mph55%30.12 "Hg10 mi
2:00 PM84 °FSunny.2 mph55%30.15 "Hg10 mi
1:30 PM82 °FSunny.2 mph58%30.15 "Hg10 mi
1:00 PM81 °FSunny.3 mph62%30.18 "Hg10 mi
12:00 PM75 °FSunny.No wind74%30.18 "Hg10 mi
11:30 AM73 °FPassing clouds.2 mph74%30.18 "HgN/A
11:00 AM70 °FPartly sunny.2 mph83%30.21 "Hg6 mi
10:00 AM66 °FFog.2 mph88%30.21 "Hg3 mi
9:30 AM66 °FFog.2 mph88%30.18 "Hg2 mi
9:00 AM64 °FFog.3 mph94%30.18 "Hg2 mi
8:00 AM64 °FFog.5 mph94%30.18 "Hg2 mi
7:30 AM64 °FFog.5 mph94%30.18 "Hg2 mi
7:00 AM64 °FFog.5 mph94%30.15 "Hg3 mi
6:00 AM64 °FLow clouds.3 mph94%30.15 "HgN/A
5:00 AM63 °FPassing clouds.2 mph94%30.15 "HgN/A
4:30 AM63 °FPassing clouds.3 mph94%30.15 "HgN/A
4:00 AM63 °FPassing clouds.1 mph94%30.18 "HgN/A
3:30 AM63 °FClear.2 mph94%30.15 "Hg10 mi
3:00 AM63 °FClear.5 mph94%30.15 "Hg10 mi
2:30 AM64 °FClear.5 mph88%30.15 "Hg10 mi
2:00 AM64 °FClear.5 mph88%30.15 "Hg10 mi
1:30 AM64 °FClear.5 mph88%30.18 "Hg10 mi
1:00 AM66 °FClear.2 mph83%30.15 "Hg10 mi
12:30 AM66 °FClear.3 mph83%30.15 "Hg10 mi
12:00 AM68 °FPassing clouds.6 mph83%30.15 "HgN/A
11:30 PM
Fri, Aug 28
68 °FClear.6 mph83%30.15 "Hg10 mi
11:00 PM68 °FClear.7 mph83%30.15 "Hg10 mi
Weather by CustomWeather, © 2015

See weather overviewHow to use our weather pages